Weather History for KVYS - May, 2013

Change the Weather History Date:

Tuesday, May 28, 2013

  Actual Average Record
Temperature  
Mean Temperature 69 °F -  
Max Temperature 75 °F 76 °F 95 °F (2006)
Min Temperature 63 °F 53 °F 33 °F (1992)
Cooling Degree Days 4    
Growing Degree Days 19 (Base 50)    
Moisture  
Dew Point 65 °F    
Average Humidity 85    
Maximum Humidity 93    
Minimum Humidity 76    
Precipitation  
Precipitation 0.38 in - - ()
Sea Level Pressure  
Sea Level Pressure 29.78 in    
Wind  
Wind Speed 11 mph (SSW)    
Max Wind Speed 24 mph    
Max Gust Speed 34 mph    
Visibility 10 miles    
Events Rain , Thunderstorm    
Averages and records for this station are not official NWS values.
T = Trace of Precipitation, MM = Missing Value Source: NWS Daily Summary

Daily Weather History Graph

Daily Weather History Graph

Search for Another Location

Airport or City:

Trip Planner

Search our weather history database for the weather conditions in past years. The results will help you decide how hot, cold, wet, or windy it might be!

Date:

Astronomy

May. 28, 2013 Rise Set
Actual Time 5:27 AM CDT 8:20 PM CDT
Civil Twilight 4:54 AM CDT 8:53 PM CDT
Nautical Twilight 4:13 AM CDT 9:35 PM CDT
Astronomical Twilight 3:25 AM CDT 10:23 PM CDT
Moon 11:42 PM CDT (5/28) 9:16 AM CDT (5/28)
Length of Visible Light 15h 58m
Length of Day
14h 53m
Waning Gibbous, 82% of the Moon is Illuminated
May 28
Waning Gibbous
May 31
Last Quarter
Jun 8
New
Jun 16
First Quarter
Jun 23
Full

Hourly Weather History & Observations

Time (CDT) Temp. Dew Point Humidity Pressure Visibility Wind Dir Wind Speed Gust Speed Precip Events Conditions
12:15 AM 65.3 °F 62.6 °F 91% 29.84 in 10.0 mi SE 6.9 mph - N/A Rain , Thunderstorm Light Thunderstorms and Rain
12:35 AM 65.3 °F 62.6 °F 91% 29.84 in 10.0 mi ESE 5.8 mph - N/A   Overcast
12:55 AM 64.9 °F 62.6 °F 92% 29.84 in 10.0 mi ESE 5.8 mph - N/A   Overcast
1:35 AM 64.6 °F 62.1 °F 92% 29.81 in 10.0 mi SE 8.1 mph - N/A   Mostly Cloudy
1:55 AM 64.4 °F 61.9 °F 92% 29.81 in 10.0 mi SE 9.2 mph - N/A   Mostly Cloudy
2:15 AM 64.0 °F 61.7 °F 92% 29.80 in 10.0 mi SE 6.9 mph - N/A   Overcast
2:35 AM 63.9 °F 61.7 °F 93% 29.80 in 10.0 mi SE 5.8 mph - N/A   Overcast
2:55 AM 63.9 °F 61.3 °F 91% 29.79 in 10.0 mi SE 6.9 mph - N/A   Mostly Cloudy
3:15 AM 63.7 °F 61.2 °F 91% 29.78 in 10.0 mi SSE 9.2 mph - N/A   Scattered Clouds
3:35 AM 63.7 °F 61.0 °F 91% 29.78 in 10.0 mi SSE 10.4 mph - N/A   Scattered Clouds
3:55 AM 63.7 °F 60.8 °F 90% 29.77 in 10.0 mi SSE 11.5 mph - N/A   Scattered Clouds
4:15 AM 63.9 °F 61.0 °F 90% 29.77 in 10.0 mi South 11.5 mph - N/A   Scattered Clouds
4:35 AM 63.9 °F 61.2 °F 91% 29.78 in 10.0 mi South 10.4 mph - N/A   Clear
4:55 AM 64.0 °F 61.3 °F 91% 29.78 in 10.0 mi South 9.2 mph - N/A   Clear
5:15 AM 64.0 °F 61.7 °F 92% 29.78 in 10.0 mi South 10.4 mph - N/A   Clear
5:35 AM 64.8 °F 62.1 °F 91% 29.78 in 10.0 mi SSW 10.4 mph - N/A   Scattered Clouds
5:55 AM 66.2 °F 62.6 °F 88% 29.79 in 10.0 mi SSW 11.5 mph - N/A Rain Light Rain
6:15 AM 67.5 °F 63.1 °F 86% 29.80 in 10.0 mi SW 19.6 mph 28.8 mph N/A Rain Light Rain
6:35 AM 67.5 °F 63.5 °F 87% 29.78 in 7.0 mi SW 21.9 mph 33.4 mph 0.01 in Rain Light Rain
6:55 AM 67.6 °F 61.2 °F 80% 29.76 in 7.0 mi SW 24.2 mph 32.2 mph 0.02 in Rain Light Rain
7:15 AM 67.5 °F 62.4 °F 84% 29.75 in 10.0 mi SW 18.4 mph 24.2 mph N/A Rain Light Rain
7:35 AM 67.5 °F 63.0 °F 85% 29.72 in 10.0 mi South 17.3 mph - N/A   Light Drizzle
7:55 AM 67.5 °F 63.1 °F 86% 29.74 in 10.0 mi SSW 15.0 mph - N/A   Scattered Clouds
8:35 AM 67.3 °F 62.8 °F 85% 29.76 in 10.0 mi SSW 11.5 mph - N/A   Clear
8:55 AM 68.0 °F 62.8 °F 83% 29.78 in 10.0 mi SW 17.3 mph 24.2 mph N/A   Scattered Clouds
9:15 AM 68.7 °F 63.0 °F 82% 29.78 in 10.0 mi SW 18.4 mph 24.2 mph N/A   Scattered Clouds
9:35 AM 68.0 °F 63.5 °F 85% 29.75 in 7.0 mi SSW 23.0 mph 29.9 mph N/A Rain Rain
9:55 AM 67.5 °F 63.9 °F 88% 29.74 in 10.0 mi SSW 12.7 mph 23.0 mph 0.02 in Rain Light Rain
10:15 AM 68.7 °F 64.8 °F 87% 29.75 in 10.0 mi SW 13.8 mph 20.7 mph N/A   Scattered Clouds
10:35 AM 70.3 °F 65.7 °F 85% 29.75 in 10.0 mi SW 9.2 mph - N/A   Scattered Clouds
10:55 AM 72.7 °F 67.1 °F 83% 29.77 in 10.0 mi SW 10.4 mph 17.3 mph N/A   Mostly Cloudy
11:15 AM 72.9 °F 66.2 °F 80% 29.77 in 10.0 mi SW 17.3 mph 27.6 mph N/A   Overcast
11:35 AM 73.8 °F 66.9 °F 79% 29.77 in 10.0 mi SSW 17.3 mph 21.9 mph N/A   Overcast
11:55 AM 73.4 °F 67.1 °F 81% 29.77 in 10.0 mi SW 16.1 mph 19.6 mph N/A   Overcast
12:15 PM 74.8 °F 67.8 °F 79% 29.77 in 10.0 mi SW 15.0 mph 27.6 mph N/A   Overcast
12:35 PM 75.2 °F 67.6 °F 77% 29.77 in 10.0 mi SW 17.3 mph 23.0 mph N/A   Overcast
12:55 PM 75.2 °F 67.8 °F 78% 29.77 in 10.0 mi SW 16.1 mph 23.0 mph N/A   Overcast
1:15 PM 75.2 °F 67.8 °F 78% 29.77 in 10.0 mi SW 15.0 mph 18.4 mph N/A   Overcast
1:35 PM 75.2 °F 68.2 °F 79% 29.77 in 10.0 mi SW 12.7 mph - N/A   Overcast
1:55 PM 75.2 °F 68.0 °F 78% 29.77 in 10.0 mi SW 11.5 mph - N/A   Overcast
2:15 PM 75.2 °F 68.0 °F 78% 29.77 in 10.0 mi SSW 11.5 mph - N/A   Overcast
2:35 PM 75.2 °F 68.4 °F 79% 29.78 in 10.0 mi SSW 9.2 mph - N/A   Overcast
2:55 PM 75.2 °F 68.2 °F 79% 29.78 in 10.0 mi SSW 12.7 mph - N/A   Overcast
3:35 PM 75.6 °F 67.5 °F 76% 29.78 in 10.0 mi SW 13.8 mph - N/A   Overcast
4:15 PM 75.2 °F 67.3 °F 76% 29.78 in 10.0 mi SSW 10.4 mph - N/A   Overcast
4:35 PM 75.2 °F 68.0 °F 78% 29.78 in 10.0 mi SSW 10.4 mph - N/A   Overcast
4:55 PM 75.2 °F 68.0 °F 78% 29.78 in 10.0 mi SW 13.8 mph 18.4 mph N/A   Overcast
5:15 PM 75.2 °F 68.0 °F 78% 29.78 in 10.0 mi SW 13.8 mph 19.6 mph N/A   Overcast
5:35 PM 75.2 °F 68.2 °F 79% 29.78 in 10.0 mi SSW 13.8 mph - N/A   Overcast
5:55 PM 75.2 °F 68.4 °F 79% 29.76 in 10.0 mi SSW 13.8 mph 19.6 mph N/A   Overcast
6:15 PM 75.2 °F 68.9 °F 81% 29.76 in 10.0 mi SSW 10.4 mph - N/A Thunderstorm Overcast
6:35 PM 73.9 °F 68.2 °F 82% 29.75 in 10.0 mi South 10.4 mph - N/A Thunderstorm Overcast
6:55 PM 73.6 °F 68.0 °F 83% 29.76 in 10.0 mi SSW 12.7 mph - N/A Rain , Thunderstorm Light Thunderstorms and Rain
7:15 PM 71.2 °F 66.9 °F 86% 29.77 in 2.5 mi SW 24.2 mph 34.5 mph 0.13 in Rain , Thunderstorm Heavy Thunderstorms and Rain
7:35 PM 68.9 °F 66.0 °F 90% 29.81 in 3.0 mi WSW 24.2 mph 32.2 mph 0.24 in Rain , Thunderstorm Heavy Thunderstorms and Rain
7:55 PM 68.5 °F 65.7 °F 90% 29.80 in 7.0 mi WSW 13.8 mph 29.9 mph 0.34 in Rain , Thunderstorm Light Thunderstorms and Rain
8:15 PM 67.8 °F 64.4 °F 89% 29.75 in 10.0 mi SSE 8.1 mph - N/A   Mostly Cloudy
8:35 PM 67.5 °F 64.4 °F 90% 29.75 in 10.0 mi SE 11.5 mph - N/A Rain Light Rain
8:55 PM 67.1 °F 62.6 °F 85% 29.76 in 10.0 mi South 9.2 mph - N/A Thunderstorm Mostly Cloudy
9:15 PM 66.9 °F 62.6 °F 86% 29.79 in 10.0 mi SSE 6.9 mph - N/A   Scattered Clouds
9:55 PM 66.2 °F 63.1 °F 90% 29.84 in 10.0 mi Calm Calm - N/A   Clear
10:15 PM 67.6 °F 63.5 °F 87% 29.84 in 10.0 mi Calm Calm - N/A   Mostly Cloudy
10:35 PM 67.8 °F 63.5 °F 86% 29.85 in 10.0 mi South 6.9 mph - N/A   Mostly Cloudy
10:55 PM 66.9 °F 63.7 °F 89% 29.85 in 10.0 mi SSE 5.8 mph - N/A Thunderstorm Mostly Cloudy
11:15 PM 66.2 °F 63.5 °F 91% 29.84 in 10.0 mi SSE 9.2 mph - N/A Thunderstorm Scattered Clouds
11:35 PM 67.8 °F 64.8 °F 90% 29.85 in 10.0 mi South 9.2 mph - N/A   Mostly Cloudy
11:55 PM 67.5 °F 64.6 °F 90% 29.86 in 10.0 mi SW 15.0 mph 20.7 mph N/A   Mostly Cloudy